Time,TemperatureF,DewpointF,PressureIn,WindDirection,WindDirectionDegrees,WindSpeedMPH,WindSpeedGustMPH,Humidity,HourlyPrecipIn,Conditions,Clouds,dailyrainin,SolarRadiationWatts/m^2,SoftwareType,DateUTC
2013-09-20 00:12:00,35.0,32.0,-100.00,North,2,1.0,6.0,88,0.00,,,0.00,0.000000,,2013-09-20 06:12:00,
2013-09-20 00:22:00,35.0,32.0,-100.00,North,2,1.0,6.0,88,0.00,,,0.00,0.000000,,2013-09-20 06:22:00,
2013-09-20 00:33:00,35.0,32.0,-100.00,North,2,1.0,6.0,88,0.00,,,0.00,0.000000,,2013-09-20 06:33:00,
2013-09-20 01:12:00,35.0,32.0,-100.00,North,356,0.0,4.0,89,0.00,,,0.00,0.000000,,2013-09-20 07:12:00,
2013-09-20 01:23:00,35.0,32.0,-100.00,North,356,0.0,4.0,89,0.00,,,0.00,0.000000,,2013-09-20 07:23:00,
2013-09-20 01:32:00,35.0,32.0,-100.00,North,356,0.0,4.0,89,0.00,,,0.00,0.000000,,2013-09-20 07:32:00,
2013-09-20 02:11:00,34.0,32.0,-100.00,North,11,0.0,4.0,92,0.00,,,0.00,0.000000,,2013-09-20 08:11:00,
2013-09-20 02:22:00,34.0,32.0,-100.00,North,11,0.0,4.0,92,0.00,,,0.00,0.000000,,2013-09-20 08:22:00,
2013-09-20 02:32:00,34.0,32.0,-100.00,North,11,0.0,4.0,92,0.00,,,0.00,0.000000,,2013-09-20 08:32:00,
2013-09-20 03:12:00,34.0,32.0,-100.00,NNE,12,0.0,3.0,91,0.00,,,0.00,0.000000,,2013-09-20 09:12:00,
2013-09-20 03:22:00,34.0,32.0,-100.00,NNE,12,0.0,3.0,91,0.00,,,0.00,0.000000,,2013-09-20 09:22:00,
2013-09-20 03:33:00,34.0,32.0,-100.00,NNE,12,0.0,3.0,91,0.00,,,0.00,0.000000,,2013-09-20 09:33:00,
2013-09-20 04:13:00,32.0,31.0,-100.00,NNE,30,0.0,2.0,96,0.00,,,0.00,0.000000,,2013-09-20 10:13:00,
2013-09-20 04:23:00,32.0,31.0,-100.00,NNE,30,0.0,2.0,96,0.00,,,0.00,0.000000,,2013-09-20 10:23:00,
2013-09-20 04:32:00,32.0,31.0,-100.00,NNE,30,0.0,2.0,96,0.00,,,0.00,0.000000,,2013-09-20 10:32:00,
2013-09-20 05:12:00,29.0,28.0,-100.00,NE,46,1.0,3.0,96,0.00,,,0.00,0.000000,,2013-09-20 11:12:00,
2013-09-20 05:23:00,29.0,28.0,-100.00,NE,46,1.0,3.0,96,0.00,,,0.00,0.000000,,2013-09-20 11:23:00,
2013-09-20 05:33:00,29.0,28.0,-100.00,NE,46,1.0,3.0,96,0.00,,,0.00,0.000000,,2013-09-20 11:33:00,
2013-09-20 06:12:00,28.0,28.0,-100.00,NNE,12,0.0,3.0,98,0.00,,,0.00,0.000000,,2013-09-20 12:12:00,
2013-09-20 06:22:00,28.0,28.0,-100.00,NNE,12,0.0,3.0,98,0.00,,,0.00,0.000000,,2013-09-20 12:22:00,
2013-09-20 06:32:00,28.0,28.0,-100.00,NNE,12,0.0,3.0,98,0.00,,,0.00,0.000000,,2013-09-20 12:32:00,
2013-09-20 07:12:00,30.0,30.0,-100.00,North,3,0.0,2.0,99,0.00,,,0.00,1.000000,,2013-09-20 13:12:00,
2013-09-20 07:21:00,30.0,30.0,-100.00,North,3,0.0,2.0,99,0.00,,,0.00,1.000000,,2013-09-20 13:21:00,
2013-09-20 07:32:00,30.0,30.0,-100.00,North,3,0.0,2.0,99,0.00,,,0.00,1.000000,,2013-09-20 13:32:00,
2013-09-20 08:11:00,29.0,29.0,-100.00,NNE,20,0.0,4.0,98,0.00,,,0.00,16.000000,,2013-09-20 14:11:00,
2013-09-20 08:21:00,29.0,29.0,-100.00,NNE,20,0.0,4.0,98,0.00,,,0.00,16.000000,,2013-09-20 14:21:00,
2013-09-20 08:32:00,29.0,29.0,-100.00,NNE,20,0.0,4.0,98,0.00,,,0.00,16.000000,,2013-09-20 14:32:00,
2013-09-20 09:12:00,43.0,36.0,-100.00,West,266,3.0,7.0,75,0.00,,,0.00,243.000000,,2013-09-20 15:12:00,
2013-09-20 09:22:00,43.0,36.0,-100.00,West,266,3.0,7.0,75,0.00,,,0.00,243.000000,,2013-09-20 15:22:00,
2013-09-20 09:33:00,43.0,36.0,-100.00,West,266,3.0,7.0,75,0.00,,,0.00,243.000000,,2013-09-20 15:33:00,
2013-09-20 10:13:00,49.0,36.0,-100.00,West,272,4.0,8.0,60,0.00,,,0.00,461.000000,,2013-09-20 16:13:00,
2013-09-20 10:23:00,49.0,36.0,-100.00,West,272,4.0,8.0,60,0.00,,,0.00,461.000000,,2013-09-20 16:23:00,
2013-09-20 11:13:00,53.0,34.0,-100.00,West,265,3.0,9.0,49,0.00,,,0.00,624.000000,,2013-09-20 17:13:00,
2013-09-20 11:24:00,53.0,34.0,-100.00,West,265,3.0,9.0,49,0.00,,,0.00,624.000000,,2013-09-20 17:24:00,
2013-09-20 11:34:00,53.0,34.0,-100.00,West,265,3.0,9.0,49,0.00,,,0.00,624.000000,,2013-09-20 17:34:00,
2013-09-20 12:12:00,56.0,33.0,-100.00,WNW,286,4.0,11.0,42,0.00,,,0.00,744.000000,,2013-09-20 18:12:00,
2013-09-20 12:22:00,56.0,33.0,-100.00,WNW,286,4.0,11.0,42,0.00,,,0.00,744.000000,,2013-09-20 18:22:00,
2013-09-20 12:32:00,56.0,33.0,-100.00,WNW,286,4.0,11.0,42,0.00,,,0.00,744.000000,,2013-09-20 18:32:00,
2013-09-20 13:12:00,59.0,31.0,-100.00,West,268,5.0,10.0,35,0.00,,,0.00,811.000000,,2013-09-20 19:12:00,
2013-09-20 13:22:00,59.0,31.0,-100.00,West,268,5.0,10.0,35,0.00,,,0.00,811.000000,,2013-09-20 19:22:00,
2013-09-20 13:32:00,59.0,31.0,-100.00,West,268,5.0,10.0,35,0.00,,,0.00,811.000000,,2013-09-20 19:32:00,
2013-09-20 14:12:00,60.0,28.0,-100.00,WNW,283,4.0,12.0,29,0.00,,,0.00,820.000000,,2013-09-20 20:12:00,
2013-09-20 14:22:00,60.0,28.0,-100.00,WNW,283,4.0,12.0,29,0.00,,,0.00,820.000000,,2013-09-20 20:22:00,
2013-09-20 14:32:00,60.0,28.0,-100.00,WNW,283,4.0,12.0,29,0.00,,,0.00,820.000000,,2013-09-20 20:32:00,
2013-09-20 15:12:00,62.0,29.0,-100.00,South,169,3.0,10.0,28,0.00,,,0.00,768.000000,,2013-09-20 21:12:00,
2013-09-20 15:21:00,62.0,29.0,-100.00,South,169,3.0,10.0,28,0.00,,,0.00,768.000000,,2013-09-20 21:21:00,
2013-09-20 15:34:00,62.0,29.0,-100.00,South,169,3.0,10.0,28,0.00,,,0.00,768.000000,,2013-09-20 21:34:00,
2013-09-20 16:14:00,62.0,32.0,-100.00,SW,223,3.0,8.0,32,0.00,,,0.00,660.000000,,2013-09-20 22:14:00,
2013-09-20 16:23:00,62.0,32.0,-100.00,SW,223,3.0,8.0,32,0.00,,,0.00,660.000000,,2013-09-20 22:23:00,
2013-09-20 16:33:00,62.0,32.0,-100.00,SW,223,3.0,8.0,32,0.00,,,0.00,660.000000,,2013-09-20 22:33:00,
2013-09-20 17:13:00,60.0,34.0,-100.00,SSW,208,4.0,7.0,37,0.00,,,0.00,135.000000,,2013-09-20 23:13:00,
2013-09-20 17:22:00,60.0,34.0,-100.00,SSW,208,4.0,7.0,37,0.00,,,0.00,135.000000,,2013-09-20 23:22:00,
2013-09-20 17:34:00,60.0,34.0,-100.00,SSW,208,4.0,7.0,37,0.00,,,0.00,135.000000,,2013-09-20 23:34:00,
2013-09-20 18:11:00,59.0,33.0,-100.00,SSW,200,3.0,7.0,37,0.00,,,0.00,60.000000,,2013-09-21 00:11:00,
2013-09-20 18:21:00,59.0,33.0,-100.00,SSW,200,3.0,7.0,37,0.00,,,0.00,60.000000,,2013-09-21 00:21:00,
2013-09-20 18:32:00,59.0,33.0,-100.00,SSW,200,3.0,7.0,37,0.00,,,0.00,60.000000,,2013-09-21 00:32:00,
2013-09-20 19:12:00,54.0,33.0,-100.00,SSW,192,1.0,5.0,44,0.00,,,0.00,103.000000,,2013-09-21 01:12:00,
2013-09-20 19:22:00,54.0,33.0,-100.00,SSW,192,1.0,5.0,44,0.00,,,0.00,103.000000,,2013-09-21 01:22:00,
2013-09-20 19:32:00,54.0,33.0,-100.00,SSW,192,1.0,5.0,44,0.00,,,0.00,103.000000,,2013-09-21 01:32:00,
2013-09-20 20:12:00,43.0,32.0,-100.00,NNE,19,1.0,2.0,65,0.00,,,0.00,4.000000,,2013-09-21 02:12:00,
2013-09-20 20:22:00,43.0,32.0,-100.00,NNE,19,1.0,2.0,65,0.00,,,0.00,4.000000,,2013-09-21 02:22:00,
2013-09-20 20:32:00,43.0,32.0,-100.00,NNE,19,1.0,2.0,65,0.00,,,0.00,4.000000,,2013-09-21 02:32:00,
2013-09-20 21:12:00,36.0,30.0,-100.00,NNE,17,2.0,4.0,78,0.00,,,0.00,0.000000,,2013-09-21 03:12:00,
2013-09-20 22:24:00,33.0,27.0,-100.00,NNE,16,1.0,3.0,79,0.00,,,0.00,0.000000,,2013-09-21 04:24:00,
2013-09-20 22:33:00,33.0,27.0,-100.00,NNE,16,1.0,3.0,79,0.00,,,0.00,0.000000,,2013-09-21 04:33:00,
2013-09-20 23:13:00,37.0,27.0,-100.00,NNW,335,0.0,2.0,67,0.00,,,0.00,0.000000,,2013-09-21 05:13:00,
2013-09-20 23:23:00,37.0,27.0,-100.00,NNW,335,0.0,2.0,67,0.00,,,0.00,0.000000,,2013-09-21 05:23:00,
2013-09-20 23:34:00,37.0,27.0,-100.00,NNW,335,0.0,2.0,67,0.00,,,0.00,0.000000,,2013-09-21 05:34:00,